Time,TemperatureF,DewpointF,PressureIn,WindDirection,WindDirectionDegrees,WindSpeedMPH,WindSpeedGustMPH,Humidity,HourlyPrecipIn,Conditions,Clouds,dailyrainin,SoftwareType,DateUTC
2013-01-01 00:01:00,29.8,26.7,30.42,East,90,0.0,0.0,88,0.00,,,0.00,WUHU216HW,2013-01-01 08:01:00,
2013-01-01 00:06:00,29.6,26.5,30.43,East,90,0.0,0.0,88,0.00,,,0.00,WUHU216HW,2013-01-01 08:06:00,
2013-01-01 00:11:00,29.6,26.5,30.43,East,90,0.0,0.0,88,0.00,,,0.00,WUHU216HW,2013-01-01 08:11:00,
2013-01-01 00:16:00,29.6,26.5,30.43,East,90,1.5,1.5,88,0.00,,,0.00,WUHU216HW,2013-01-01 08:16:00,
2013-01-01 00:21:00,29.6,26.5,30.43,East,90,0.0,1.5,88,0.00,,,0.00,WUHU216HW,2013-01-01 08:21:00,
2013-01-01 00:26:00,29.6,26.5,30.43,East,90,0.0,1.5,88,0.00,,,0.00,WUHU216HW,2013-01-01 08:26:00,
2013-01-01 00:31:00,29.4,26.3,30.43,East,90,0.0,1.3,88,0.00,,,0.00,WUHU216HW,2013-01-01 08:31:00,
2013-01-01 00:36:00,29.4,26.3,30.43,East,90,0.0,1.3,88,0.00,,,0.00,WUHU216HW,2013-01-01 08:36:00,
2013-01-01 00:41:00,29.3,26.2,30.43,East,90,0.0,0.0,88,0.00,,,0.00,WUHU216HW,2013-01-01 08:41:00,
2013-01-01 00:46:00,29.3,26.2,30.44,East,90,0.0,1.1,88,0.00,,,0.00,WUHU216HW,2013-01-01 08:46:00,
2013-01-01 00:51:00,29.1,26.0,30.44,East,90,0.0,1.1,88,0.00,,,0.00,WUHU216HW,2013-01-01 08:51:00,
2013-01-01 00:56:00,29.1,26.0,30.44,East,90,0.0,0.0,88,0.00,,,0.00,WUHU216HW,2013-01-01 08:56:00,
2013-01-01 01:01:00,29.1,26.0,30.44,East,90,0.0,0.0,88,0.00,,,0.00,WUHU216HW,2013-01-01 09:01:00,
2013-01-01 01:06:00,29.1,26.0,30.44,East,90,0.0,0.0,88,0.00,,,0.00,WUHU216HW,2013-01-01 09:06:00,
2013-01-01 01:11:00,29.1,26.0,30.43,East,90,0.0,0.0,88,0.00,,,0.00,WUHU216HW,2013-01-01 09:11:00,
2013-01-01 01:16:00,28.9,25.8,30.44,East,90,0.0,0.0,88,0.00,,,0.00,WUHU216HW,2013-01-01 09:16:00,
2013-01-01 01:21:00,28.9,25.8,30.44,East,90,0.0,0.0,88,0.00,,,0.00,WUHU216HW,2013-01-01 09:21:00,
2013-01-01 01:26:00,28.9,25.8,30.45,East,90,0.0,0.0,88,0.00,,,0.00,WUHU216HW,2013-01-01 09:26:00,
2013-01-01 01:31:00,28.7,25.6,30.45,East,90,0.0,0.0,88,0.00,,,0.00,WUHU216HW,2013-01-01 09:31:00,
2013-01-01 01:36:00,28.7,25.6,30.45,East,90,0.0,0.0,88,0.00,,,0.00,WUHU216HW,2013-01-01 09:36:00,
2013-01-01 01:41:00,28.7,25.6,30.45,East,90,0.0,0.0,88,0.00,,,0.00,WUHU216HW,2013-01-01 09:41:00,
2013-01-01 01:46:00,28.7,25.6,30.45,East,90,0.0,0.0,88,0.00,,,0.00,WUHU216HW,2013-01-01 09:46:00,
2013-01-01 01:51:00,28.7,25.6,30.45,East,90,0.0,0.0,88,0.00,,,0.00,WUHU216HW,2013-01-01 09:51:00,
2013-01-01 01:56:00,28.7,25.6,30.46,East,90,0.0,0.0,88,0.00,,,0.00,WUHU216HW,2013-01-01 09:56:00,
2013-01-01 02:01:00,28.7,25.6,30.46,East,90,0.0,0.0,88,0.00,,,0.00,WUHU216HW,2013-01-01 10:01:00,
2013-01-01 02:06:00,28.7,25.6,30.46,East,90,0.0,0.0,88,0.00,,,0.00,WUHU216HW,2013-01-01 10:06:00,
2013-01-01 02:11:00,28.7,25.6,30.46,East,90,0.0,0.0,88,0.00,,,0.00,WUHU216HW,2013-01-01 10:11:00,
2013-01-01 02:16:00,28.5,25.4,30.46,East,90,0.0,0.0,88,0.00,,,0.00,WUHU216HW,2013-01-01 10:16:00,
2013-01-01 02:21:00,28.5,25.4,30.46,East,90,0.0,0.0,88,0.00,,,0.00,WUHU216HW,2013-01-01 10:21:00,
2013-01-01 02:26:00,28.5,25.4,30.46,East,90,0.0,0.0,88,0.00,,,0.00,WUHU216HW,2013-01-01 10:26:00,
2013-01-01 02:31:00,28.7,25.6,30.46,East,90,0.0,0.0,88,0.00,,,0.00,WUHU216HW,2013-01-01 10:31:00,
2013-01-01 02:36:00,28.7,25.6,30.46,East,90,0.0,0.0,88,0.00,,,0.00,WUHU216HW,2013-01-01 10:36:00,
2013-01-01 02:41:00,28.5,25.6,30.46,East,90,0.0,0.0,88,0.00,,,0.00,WUHU216HW,2013-01-01 10:41:00,
2013-01-01 02:46:00,28.5,25.4,30.46,East,90,0.0,0.0,88,0.00,,,0.00,WUHU216HW,2013-01-01 10:46:00,
2013-01-01 02:51:00,28.5,25.4,30.46,East,90,0.0,0.0,88,0.00,,,0.00,WUHU216HW,2013-01-01 10:51:00,
2013-01-01 02:56:00,28.5,25.4,30.46,East,90,0.0,0.0,88,0.00,,,0.00,WUHU216HW,2013-01-01 10:56:00,
2013-01-01 03:02:00,28.4,25.3,30.46,East,90,0.0,0.0,88,0.00,,,0.00,WUHU216HW,2013-01-01 11:02:00,
2013-01-01 03:07:00,28.2,25.1,30.46,East,90,0.0,0.0,88,0.00,,,0.00,WUHU216HW,2013-01-01 11:07:00,
2013-01-01 03:12:00,28.2,25.1,30.46,East,90,0.0,0.0,88,0.00,,,0.00,WUHU216HW,2013-01-01 11:12:00,
2013-01-01 03:17:00,28.2,25.1,30.47,East,90,0.0,0.0,88,0.00,,,0.00,WUHU216HW,2013-01-01 11:17:00,
2013-01-01 03:22:00,28.2,25.1,30.47,East,90,0.0,0.0,88,0.00,,,0.00,WUHU216HW,2013-01-01 11:22:00,
2013-01-01 03:26:00,28.2,25.1,30.47,East,90,0.0,0.0,88,0.00,,,0.00,WUHU216HW,2013-01-01 11:26:00,
2013-01-01 03:32:00,28.2,25.1,30.47,East,90,0.0,0.0,88,0.00,,,0.00,WUHU216HW,2013-01-01 11:32:00,
2013-01-01 03:37:00,28.2,25.1,30.46,East,90,0.0,0.0,88,0.00,,,0.00,WUHU216HW,2013-01-01 11:37:00,
2013-01-01 03:42:00,28.0,24.9,30.46,East,90,0.0,0.0,88,0.00,,,0.00,WUHU216HW,2013-01-01 11:42:00,
2013-01-01 03:47:00,28.0,24.9,30.46,East,90,0.0,0.0,88,0.00,,,0.00,WUHU216HW,2013-01-01 11:47:00,
2013-01-01 03:52:00,28.0,24.9,30.45,East,90,0.0,0.0,88,0.00,,,0.00,WUHU216HW,2013-01-01 11:52:00,
2013-01-01 03:57:00,27.8,24.7,30.45,East,90,0.0,0.0,88,0.00,,,0.00,WUHU216HW,2013-01-01 11:57:00,
2013-01-01 04:02:00,27.8,24.7,30.45,East,90,0.0,0.0,88,0.00,,,0.00,WUHU216HW,2013-01-01 12:02:00,
2013-01-01 04:07:00,27.6,24.5,30.44,East,90,0.0,0.0,88,0.00,,,0.00,WUHU216HW,2013-01-01 12:07:00,
2013-01-01 04:12:00,27.6,24.7,30.43,East,90,0.0,0.8,88,0.00,,,0.00,WUHU216HW,2013-01-01 12:12:00,
2013-01-01 04:17:00,28.0,24.9,30.43,East,90,0.0,0.8,88,0.00,,,0.00,WUHU216HW,2013-01-01 12:17:00,
2013-01-01 04:22:00,28.0,24.9,30.43,East,90,2.0,2.0,88,0.00,,,0.00,WUHU216HW,2013-01-01 12:22:00,
2013-01-01 04:27:00,28.2,25.4,30.43,East,90,0.0,2.0,89,0.00,,,0.00,WUHU216HW,2013-01-01 12:27:00,
2013-01-01 04:32:00,28.2,25.4,30.42,East,90,10.7,10.7,89,0.00,,,0.00,WUHU216HW,2013-01-01 12:32:00,
2013-01-01 04:37:00,28.2,25.4,30.42,East,90,1.5,10.7,89,0.00,,,0.00,WUHU216HW,2013-01-01 12:37:00,
2013-01-01 04:42:00,28.5,25.7,30.41,East,90,0.0,10.7,89,0.00,,,0.00,WUHU216HW,2013-01-01 12:42:00,
2013-01-01 04:47:00,28.5,25.7,30.41,East,90,0.8,3.1,89,0.00,,,0.00,WUHU216HW,2013-01-01 12:47:00,
2013-01-01 04:52:00,28.7,25.9,30.41,East,90,0.8,3.1,89,0.00,,,0.00,WUHU216HW,2013-01-01 12:52:00,
2013-01-01 04:57:00,28.7,25.9,30.41,East,90,0.0,0.8,89,0.00,,,0.00,WUHU216HW,2013-01-01 12:57:00,
2013-01-01 05:02:00,29.1,26.3,30.41,East,90,1.3,2.4,89,0.00,,,0.00,WUHU216HW,2013-01-01 13:02:00,
2013-01-01 05:07:00,29.1,26.3,30.41,East,90,0.0,2.4,89,0.00,,,0.00,WUHU216HW,2013-01-01 13:07:00,
2013-01-01 05:12:00,29.1,26.3,30.41,East,90,4.6,4.6,89,0.00,,,0.00,WUHU216HW,2013-01-01 13:12:00,
2013-01-01 05:17:00,29.1,26.3,30.42,East,90,3.1,4.6,89,0.00,,,0.00,WUHU216HW,2013-01-01 13:17:00,
2013-01-01 05:22:00,29.1,26.3,30.42,East,90,4.2,4.2,89,0.00,,,0.00,WUHU216HW,2013-01-01 13:22:00,
2013-01-01 05:27:00,29.1,26.3,30.42,East,90,0.8,4.2,89,0.00,,,0.00,WUHU216HW,2013-01-01 13:27:00,
2013-01-01 05:32:00,29.1,26.3,30.42,East,90,3.3,3.3,89,0.00,,,0.00,WUHU216HW,2013-01-01 13:32:00,
2013-01-01 05:37:00,28.9,26.1,30.42,East,90,0.0,3.3,89,0.00,,,0.00,WUHU216HW,2013-01-01 13:37:00,
2013-01-01 05:42:00,28.9,26.1,30.42,East,90,3.1,4.0,89,0.00,,,0.00,WUHU216HW,2013-01-01 13:42:00,
2013-01-01 05:47:00,28.9,26.1,30.42,East,90,0.0,4.0,89,0.00,,,0.00,WUHU216HW,2013-01-01 13:47:00,
2013-01-01 05:52:00,28.9,26.1,30.42,East,90,0.0,2.2,89,0.00,,,0.00,WUHU216HW,2013-01-01 13:52:00,
2013-01-01 05:57:00,28.9,26.1,30.42,East,90,3.3,3.3,89,0.00,,,0.00,WUHU216HW,2013-01-01 13:57:00,
2013-01-01 06:02:00,28.9,26.1,30.42,East,90,0.8,3.3,89,0.00,,,0.00,WUHU216HW,2013-01-01 14:02:00,
2013-01-01 06:07:00,28.9,26.1,30.42,East,90,4.6,4.6,89,0.00,,,0.00,WUHU216HW,2013-01-01 14:07:00,
2013-01-01 06:12:00,28.9,26.1,30.42,East,90,3.8,4.6,89,0.00,,,0.00,WUHU216HW,2013-01-01 14:12:00,
2013-01-01 06:17:00,28.9,26.1,30.42,East,90,3.3,3.8,89,0.00,,,0.00,WUHU216HW,2013-01-01 14:17:00,
2013-01-01 06:22:00,28.9,26.1,30.43,East,90,0.0,3.8,89,0.00,,,0.00,WUHU216HW,2013-01-01 14:22:00,
2013-01-01 06:27:00,28.9,26.1,30.42,East,90,1.3,1.3,89,0.00,,,0.00,WUHU216HW,2013-01-01 14:27:00,
2013-01-01 06:32:00,28.9,26.1,30.43,East,90,1.5,1.7,89,0.00,,,0.00,WUHU216HW,2013-01-01 14:32:00,
2013-01-01 06:37:00,28.7,25.9,30.42,East,90,0.0,1.7,89,0.00,,,0.00,WUHU216HW,2013-01-01 14:37:00,
2013-01-01 06:42:00,28.7,25.9,30.42,East,90,1.6,2.0,89,0.00,,,0.00,WUHU216HW,2013-01-01 14:42:00,
2013-01-01 06:47:00,28.7,25.6,30.42,East,90,3.3,3.3,88,0.00,,,0.00,WUHU216HW,2013-01-01 14:47:00,
2013-01-01 06:52:00,28.5,25.4,30.42,East,90,0.0,3.3,88,0.00,,,0.00,WUHU216HW,2013-01-01 14:52:00,
2013-01-01 06:57:00,28.5,25.4,30.42,East,90,0.0,2.9,88,0.00,,,0.00,WUHU216HW,2013-01-01 14:57:00,
2013-01-01 07:02:00,28.5,25.4,30.42,East,90,1.3,2.9,88,0.00,,,0.00,WUHU216HW,2013-01-01 15:02:00,
2013-01-01 07:07:00,28.5,25.7,30.43,East,90,0.0,1.3,89,0.00,,,0.00,WUHU216HW,2013-01-01 15:07:00,
2013-01-01 07:12:00,28.5,25.4,30.43,East,90,0.0,0.0,88,0.00,,,0.00,WUHU216HW,2013-01-01 15:12:00,
2013-01-01 07:17:00,28.5,25.4,30.43,East,90,0.0,0.0,88,0.00,,,0.00,WUHU216HW,2013-01-01 15:17:00,
2013-01-01 07:22:00,28.2,25.1,30.43,East,90,0.0,0.6,88,0.00,,,0.00,WUHU216HW,2013-01-01 15:22:00,
2013-01-01 07:27:00,28.2,25.1,30.43,East,90,0.0,0.6,88,0.00,,,0.00,WUHU216HW,2013-01-01 15:27:00,
2013-01-01 07:32:00,28.2,25.1,30.44,East,90,0.0,0.0,88,0.00,,,0.00,WUHU216HW,2013-01-01 15:32:00,
2013-01-01 07:37:00,28.2,25.1,30.44,East,90,0.0,0.0,88,0.00,,,0.00,WUHU216HW,2013-01-01 15:37:00,
2013-01-01 07:42:00,28.2,25.1,30.44,East,90,0.0,0.0,88,0.00,,,0.00,WUHU216HW,2013-01-01 15:42:00,
2013-01-01 07:47:00,28.2,25.1,30.45,East,90,0.0,0.0,88,0.00,,,0.00,WUHU216HW,2013-01-01 15:47:00,
2013-01-01 07:52:00,28.0,24.9,30.45,East,90,0.0,0.0,88,0.00,,,0.00,WUHU216HW,2013-01-01 15:52:00,
2013-01-01 07:57:00,28.0,24.9,30.44,East,90,0.0,0.0,88,0.00,,,0.00,WUHU216HW,2013-01-01 15:57:00,
2013-01-01 08:02:00,28.0,24.9,30.45,East,90,0.0,0.0,88,0.00,,,0.00,WUHU216HW,2013-01-01 16:02:00,
2013-01-01 08:07:00,28.0,24.9,30.45,East,90,0.0,0.0,88,0.00,,,0.00,WUHU216HW,2013-01-01 16:07:00,
2013-01-01 08:12:00,27.6,24.5,30.45,East,90,0.0,0.0,88,0.00,,,0.00,WUHU216HW,2013-01-01 16:12:00,
2013-01-01 08:17:00,27.6,24.5,30.46,East,90,0.0,0.0,88,0.00,,,0.00,WUHU216HW,2013-01-01 16:17:00,
2013-01-01 08:22:00,27.6,24.5,30.46,East,90,2.2,2.2,88,0.00,,,0.00,WUHU216HW,2013-01-01 16:22:00,
2013-01-01 08:27:00,27.6,24.5,30.46,East,90,0.0,2.2,88,0.00,,,0.00,WUHU216HW,2013-01-01 16:27:00,
2013-01-01 08:32:00,27.6,24.5,30.46,East,90,0.0,2.2,88,0.00,,,0.00,WUHU216HW,2013-01-01 16:32:00,
2013-01-01 08:37:00,28.0,24.9,30.46,East,90,0.0,1.7,88,0.00,,,0.00,WUHU216HW,2013-01-01 16:37:00,
2013-01-01 08:42:00,28.0,24.9,30.47,East,90,2.0,2.0,88,0.00,,,0.00,WUHU216HW,2013-01-01 16:42:00,
2013-01-01 08:47:00,28.0,24.9,30.46,East,90,0.0,2.0,88,0.00,,,0.00,WUHU216HW,2013-01-01 16:47:00,
2013-01-01 08:52:00,28.0,24.9,30.47,East,90,0.0,2.0,88,0.00,,,0.00,WUHU216HW,2013-01-01 16:52:00,
2013-01-01 08:57:00,28.0,24.9,30.47,East,90,0.0,0.0,88,0.00,,,0.00,WUHU216HW,2013-01-01 16:57:00,
2013-01-01 09:02:00,28.0,24.9,30.47,East,90,0.0,0.0,88,0.00,,,0.00,WUHU216HW,2013-01-01 17:02:00,
2013-01-01 09:07:00,28.0,24.9,30.46,East,90,0.0,0.0,88,0.00,,,0.00,WUHU216HW,2013-01-01 17:07:00,
2013-01-01 09:12:00,28.0,24.9,30.46,East,90,0.0,1.3,88,0.00,,,0.00,WUHU216HW,2013-01-01 17:12:00,
2013-01-01 09:17:00,28.0,24.9,30.47,East,90,0.0,1.3,88,0.00,,,0.00,WUHU216HW,2013-01-01 17:17:00,
2013-01-01 09:22:00,28.2,25.1,30.46,East,90,3.3,3.3,88,0.00,,,0.00,WUHU216HW,2013-01-01 17:22:00,
2013-01-01 09:27:00,28.2,25.1,30.46,East,90,1.7,3.3,88,0.00,,,0.00,WUHU216HW,2013-01-01 17:27:00,
2013-01-01 09:32:00,28.5,25.4,30.46,East,90,3.8,3.8,88,0.00,,,0.00,WUHU216HW,2013-01-01 17:32:00,
2013-01-01 09:37:00,28.7,25.9,30.46,East,90,2.0,3.8,89,0.00,,,0.00,WUHU216HW,2013-01-01 17:37:00,
2013-01-01 09:42:00,28.7,25.9,30.46,East,90,1.5,2.0,89,0.00,,,0.00,WUHU216HW,2013-01-01 17:42:00,
2013-01-01 09:47:00,28.9,26.1,30.46,East,90,2.0,2.0,89,0.00,,,0.00,WUHU216HW,2013-01-01 17:47:00,
2013-01-01 09:52:00,29.1,26.3,30.46,East,90,0.0,2.0,89,0.00,,,0.00,WUHU216HW,2013-01-01 17:52:00,
2013-01-01 09:57:00,29.3,26.4,30.46,East,90,0.0,2.4,89,0.00,,,0.00,WUHU216HW,2013-01-01 17:57:00,
2013-01-01 10:02:00,29.4,26.6,30.46,East,90,1.1,2.4,89,0.00,,,0.00,WUHU216HW,2013-01-01 18:02:00,
2013-01-01 10:07:00,29.8,27.0,30.46,East,90,0.0,1.3,89,0.00,,,0.00,WUHU216HW,2013-01-01 18:07:00,
2013-01-01 10:12:00,30.2,27.3,30.46,East,90,3.3,3.3,89,0.00,,,0.00,WUHU216HW,2013-01-01 18:12:00,
2013-01-01 10:17:00,30.3,27.5,30.46,East,90,0.0,3.3,89,0.00,,,0.00,WUHU216HW,2013-01-01 18:17:00,
2013-01-01 10:22:00,30.7,27.9,30.45,East,90,11.1,11.1,89,0.00,,,0.00,WUHU216HW,2013-01-01 18:22:00,
2013-01-01 10:27:00,31.2,28.4,30.45,East,90,0.0,11.1,89,0.00,,,0.00,WUHU216HW,2013-01-01 18:27:00,
2013-01-01 10:32:00,31.6,28.8,30.45,East,90,0.0,11.1,89,0.00,,,0.00,WUHU216HW,2013-01-01 18:32:00,
2013-01-01 10:37:00,31.8,29.0,30.45,East,90,0.0,2.0,89,0.00,,,0.00,WUHU216HW,2013-01-01 18:37:00,
2013-01-01 10:42:00,32.1,29.3,30.45,East,90,3.1,3.1,89,0.00,,,0.00,WUHU216HW,2013-01-01 18:42:00,
2013-01-01 10:47:00,32.3,29.5,30.45,East,90,0.0,3.1,89,0.00,,,0.00,WUHU216HW,2013-01-01 18:47:00,
2013-01-01 10:52:00,32.7,29.8,30.45,East,90,1.5,3.1,89,0.00,,,0.00,WUHU216HW,2013-01-01 18:52:00,
2013-01-01 10:57:00,32.9,29.7,30.45,East,90,1.5,3.3,88,0.00,,,0.00,WUHU216HW,2013-01-01 18:57:00,
2013-01-01 11:02:00,33.0,29.8,30.45,East,90,2.2,3.3,88,0.00,,,0.00,WUHU216HW,2013-01-01 19:02:00,
2013-01-01 11:07:00,33.2,30.0,30.45,East,90,3.1,3.1,88,0.00,,,0.00,WUHU216HW,2013-01-01 19:07:00,
2013-01-01 11:12:00,33.4,30.2,30.44,East,90,0.0,3.1,88,0.00,,,0.00,WUHU216HW,2013-01-01 19:12:00,
2013-01-01 11:17:00,33.4,30.2,30.44,East,90,2.2,2.2,88,0.00,,,0.00,WUHU216HW,2013-01-01 19:17:00,
2013-01-01 11:22:00,33.6,30.3,30.44,East,90,2.9,2.9,88,0.00,,,0.00,WUHU216HW,2013-01-01 19:22:00,
2013-01-01 11:27:00,33.8,30.2,30.44,East,90,0.0,2.9,87,0.00,,,0.00,WUHU216HW,2013-01-01 19:27:00,
2013-01-01 11:32:00,33.9,30.4,30.44,East,90,1.1,2.9,87,0.00,,,0.00,WUHU216HW,2013-01-01 19:32:00,
2013-01-01 11:37:00,34.3,30.7,30.43,East,90,0.8,4.2,87,0.00,,,0.00,WUHU216HW,2013-01-01 19:37:00,
2013-01-01 11:42:00,34.3,30.7,30.43,East,90,2.2,4.2,87,0.00,,,0.00,WUHU216HW,2013-01-01 19:42:00,
2013-01-01 11:47:00,34.3,30.7,30.43,East,90,0.0,3.8,87,0.00,,,0.00,WUHU216HW,2013-01-01 19:47:00,
2013-01-01 11:52:00,34.5,30.9,30.43,East,90,1.5,3.8,87,0.00,,,0.00,WUHU216HW,2013-01-01 19:52:00,
2013-01-01 11:57:00,34.7,31.1,30.43,East,90,0.8,2.4,87,0.00,,,0.00,WUHU216HW,2013-01-01 19:57:00,
2013-01-01 12:02:00,34.8,31.3,30.43,East,90,0.0,2.4,87,0.00,,,0.00,WUHU216HW,2013-01-01 20:02:00,
2013-01-01 12:07:00,35.2,31.6,30.42,East,90,0.0,0.0,87,0.00,,,0.00,WUHU216HW,2013-01-01 20:07:00,
2013-01-01 12:12:00,35.2,31.6,30.42,South,180,0.8,2.6,87,0.00,,,0.00,WUHU216HW,2013-01-01 20:12:00,
2013-01-01 12:17:00,35.4,31.8,30.41,SE,135,1.1,2.6,87,0.00,,,0.00,WUHU216HW,2013-01-01 20:17:00,
2013-01-01 12:22:00,35.4,31.8,30.41,SE,135,0.0,2.9,87,0.00,,,0.00,WUHU216HW,2013-01-01 20:22:00,
2013-01-01 12:27:00,35.6,32.0,30.41,South,180,0.0,2.9,87,0.00,,,0.00,WUHU216HW,2013-01-01 20:27:00,
2013-01-01 12:32:00,35.7,32.2,30.41,SE,135,1.1,1.1,87,0.00,,,0.00,WUHU216HW,2013-01-01 20:32:00,
2013-01-01 12:37:00,36.3,32.4,30.40,SE,135,4.2,4.2,86,0.00,,,0.00,WUHU216HW,2013-01-01 20:37:00,
2013-01-01 12:42:00,36.3,32.4,30.40,SSE,158,0.0,4.2,86,0.00,,,0.00,WUHU216HW,2013-01-01 20:42:00,
2013-01-01 12:47:00,36.8,33.0,30.40,East,90,2.9,4.2,86,0.00,,,0.00,WUHU216HW,2013-01-01 20:47:00,
2013-01-01 12:52:00,37.0,32.9,30.40,East,90,2.4,2.9,85,0.00,,,0.00,WUHU216HW,2013-01-01 20:52:00,
2013-01-01 12:57:00,37.2,33.0,30.40,WNW,293,5.3,5.3,85,0.00,,,0.00,WUHU216HW,2013-01-01 20:57:00,
2013-01-01 13:02:00,37.2,33.0,30.40,SSE,158,3.1,5.3,85,0.00,,,0.00,WUHU216HW,2013-01-01 21:02:00,
2013-01-01 13:07:00,37.5,33.1,30.40,South,180,1.1,3.1,84,0.00,,,0.00,WUHU216HW,2013-01-01 21:07:00,
2013-01-01 13:12:00,37.7,33.3,30.39,NE,45,6.0,6.0,84,0.00,,,0.00,WUHU216HW,2013-01-01 21:12:00,
2013-01-01 13:17:00,37.5,33.1,30.39,NE,45,0.0,6.0,84,0.00,,,0.00,WUHU216HW,2013-01-01 21:17:00,
2013-01-01 13:22:00,37.9,33.5,30.39,SSW,203,1.5,1.5,84,0.00,,,0.00,WUHU216HW,2013-01-01 21:22:00,
2013-01-01 13:27:00,38.1,33.6,30.39,SSE,158,0.0,1.5,84,0.00,,,0.00,WUHU216HW,2013-01-01 21:27:00,
2013-01-01 13:32:00,38.1,33.6,30.39,SSW,203,1.5,3.1,84,0.00,,,0.00,WUHU216HW,2013-01-01 21:32:00,
2013-01-01 13:37:00,38.1,33.6,30.40,SSE,158,4.0,5.1,84,0.00,,,0.00,WUHU216HW,2013-01-01 21:37:00,
2013-01-01 13:43:00,38.1,33.4,30.40,South,180,3.3,5.1,83,0.00,,,0.00,WUHU216HW,2013-01-01 21:43:00,
2013-01-01 13:48:00,38.1,33.4,30.40,South,180,2.9,4.0,83,0.00,,,0.00,WUHU216HW,2013-01-01 21:48:00,
2013-01-01 13:53:00,37.9,33.2,30.40,SSE,158,2.7,3.5,83,0.00,,,0.00,WUHU216HW,2013-01-01 21:53:00,
2013-01-01 13:58:00,37.9,33.2,30.40,SE,135,2.4,3.3,83,0.00,,,0.00,WUHU216HW,2013-01-01 21:58:00,
2013-01-01 14:03:00,37.9,33.2,30.40,SSE,158,2.4,2.9,83,0.00,,,0.00,WUHU216HW,2013-01-01 22:03:00,
2013-01-01 14:08:00,37.9,33.2,30.40,SSE,158,1.7,4.2,83,0.00,,,0.00,WUHU216HW,2013-01-01 22:08:00,
2013-01-01 14:13:00,37.9,33.2,30.40,South,180,0.0,4.2,83,0.02,,,0.02,WUHU216HW,2013-01-01 22:13:00,
2013-01-01 14:18:00,37.9,33.2,30.40,SSE,158,0.0,1.7,83,0.02,,,0.02,WUHU216HW,2013-01-01 22:18:00,
2013-01-01 14:23:00,37.9,33.2,30.40,South,180,2.0,3.1,83,0.02,,,0.02,WUHU216HW,2013-01-01 22:23:00,
2013-01-01 14:28:00,37.9,33.2,30.40,SSE,158,3.1,3.1,83,0.02,,,0.02,WUHU216HW,2013-01-01 22:28:00,
2013-01-01 14:33:00,37.9,33.2,30.40,SSE,158,0.0,3.1,83,0.02,,,0.02,WUHU216HW,2013-01-01 22:33:00,
2013-01-01 14:38:00,37.9,33.5,30.40,South,180,2.0,3.1,84,0.02,,,0.02,WUHU216HW,2013-01-01 22:38:00,
2013-01-01 14:43:00,37.7,33.3,30.40,SE,135,0.0,2.2,84,0.02,,,0.02,WUHU216HW,2013-01-01 22:43:00,
2013-01-01 14:48:00,37.7,33.3,30.40,ESE,113,0.0,2.4,84,0.02,,,0.02,WUHU216HW,2013-01-01 22:48:00,
2013-01-01 14:53:00,37.5,33.1,30.40,ESE,113,0.0,2.4,84,0.02,,,0.02,WUHU216HW,2013-01-01 22:53:00,
2013-01-01 14:58:00,37.4,32.9,30.39,SSE,158,1.3,1.3,84,0.02,,,0.02,WUHU216HW,2013-01-01 22:58:00,
2013-01-01 15:03:00,37.4,32.9,30.39,ESE,113,0.0,1.3,84,0.02,,,0.02,WUHU216HW,2013-01-01 23:03:00,
2013-01-01 15:08:00,37.2,32.7,30.39,NNE,23,0.0,0.0,84,0.00,,,0.02,WUHU216HW,2013-01-01 23:08:00,
2013-01-01 15:13:00,37.2,32.7,30.39,East,90,0.0,0.0,84,0.00,,,0.02,WUHU216HW,2013-01-01 23:13:00,
2013-01-01 15:18:00,37.2,32.7,30.39,NNE,23,0.0,0.0,84,0.00,,,0.02,WUHU216HW,2013-01-01 23:18:00,
2013-01-01 15:23:00,37.2,32.7,30.39,SE,135,1.7,4.2,84,0.00,,,0.02,WUHU216HW,2013-01-01 23:23:00,
2013-01-01 15:28:00,37.5,33.1,30.39,North,0,1.7,4.2,84,0.00,,,0.02,WUHU216HW,2013-01-01 23:28:00,
2013-01-01 15:33:00,37.7,33.3,30.38,ENE,68,1.5,1.7,84,0.00,,,0.02,WUHU216HW,2013-01-01 23:33:00,
2013-01-01 15:38:00,37.7,33.3,30.38,ESE,113,0.0,1.5,84,0.00,,,0.02,WUHU216HW,2013-01-01 23:38:00,
2013-01-01 15:43:00,37.7,33.3,30.38,NE,45,3.1,3.1,84,0.00,,,0.02,WUHU216HW,2013-01-01 23:43:00,
2013-01-01 15:48:00,37.7,33.3,30.38,SE,135,0.0,3.1,84,0.00,,,0.02,WUHU216HW,2013-01-01 23:48:00,
2013-01-01 15:53:00,37.7,33.3,30.38,NE,45,2.0,3.1,84,0.00,,,0.02,WUHU216HW,2013-01-01 23:53:00,
2013-01-01 15:58:00,37.9,33.3,30.38,East,93,3.0,5.1,84,0.00,,,0.02,WUHU216HW,2013-01-01 23:58:00,
2013-01-01 16:03:00,37.5,33.1,30.39,ENE,68,0.0,5.1,84,0.00,,,0.02,WUHU216HW,2013-01-02 00:03:00,
2013-01-01 16:08:00,37.7,33.0,30.38,West,270,0.0,0.8,83,0.00,,,0.02,WUHU216HW,2013-01-02 00:08:00,
2013-01-01 16:13:00,37.5,32.8,30.39,South,180,1.3,1.3,83,0.00,,,0.02,WUHU216HW,2013-01-02 00:13:00,
2013-01-01 16:18:00,37.2,32.7,30.39,SSE,158,1.5,1.5,84,0.00,,,0.02,WUHU216HW,2013-01-02 00:18:00,
2013-01-01 16:23:00,37.2,32.7,30.39,SSE,158,1.1,1.5,84,0.00,,,0.02,WUHU216HW,2013-01-02 00:23:00,
2013-01-01 16:28:00,36.8,32.4,30.39,ESE,113,0.0,1.5,84,0.00,,,0.02,WUHU216HW,2013-01-02 00:28:00,
2013-01-01 16:33:00,36.6,32.2,30.39,SE,135,0.0,0.0,84,0.00,,,0.02,WUHU216HW,2013-01-02 00:33:00,
2013-01-01 16:38:00,36.3,31.8,30.39,SE,135,0.0,0.0,84,0.00,,,0.02,WUHU216HW,2013-01-02 00:38:00,
2013-01-01 16:43:00,35.9,31.5,30.39,SSE,158,2.9,2.9,84,0.00,,,0.02,WUHU216HW,2013-01-02 00:43:00,
2013-01-01 16:48:00,35.7,31.6,30.39,South,180,2.0,2.9,85,0.00,,,0.02,WUHU216HW,2013-01-02 00:48:00,
2013-01-01 16:53:00,35.7,31.6,30.39,SE,135,0.0,2.9,85,0.00,,,0.02,WUHU216HW,2013-01-02 00:53:00,
2013-01-01 16:58:00,35.6,31.4,30.39,SSE,158,0.0,0.0,85,0.00,,,0.02,WUHU216HW,2013-01-02 00:58:00,
2013-01-01 17:03:00,35.4,31.2,30.39,SSE,158,2.2,2.2,85,0.00,,,0.02,WUHU216HW,2013-01-02 01:03:00,
2013-01-01 17:08:00,35.2,31.1,30.39,SSE,158,2.9,2.9,85,0.00,,,0.02,WUHU216HW,2013-01-02 01:08:00,
2013-01-01 17:13:00,35.2,31.3,30.38,SE,146,1.6,2.9,86,0.00,,,0.02,WUHU216HW,2013-01-02 01:13:00,
2013-01-01 17:18:00,35.2,31.3,30.38,South,180,2.9,2.9,86,0.00,,,0.02,WUHU216HW,2013-01-02 01:18:00,
2013-01-01 17:23:00,35.2,31.3,30.38,SSE,158,0.0,2.9,86,0.00,,,0.02,WUHU216HW,2013-01-02 01:23:00,
2013-01-01 17:28:00,35.2,31.3,30.38,SSE,158,2.2,2.9,86,0.00,,,0.02,WUHU216HW,2013-01-02 01:28:00,
2013-01-01 17:33:00,35.2,31.3,30.38,SE,135,0.0,2.2,86,0.00,,,0.02,WUHU216HW,2013-01-02 01:33:00,
2013-01-01 17:38:00,35.0,31.2,30.38,ESE,113,0.0,2.2,86,0.00,,,0.02,WUHU216HW,2013-01-02 01:38:00,
2013-01-01 17:43:00,35.0,31.2,30.37,SSE,158,3.0,3.5,86,0.00,,,0.02,WUHU216HW,2013-01-02 01:43:00,
2013-01-01 17:48:00,34.8,31.0,30.37,SE,135,0.0,3.5,86,0.00,,,0.02,WUHU216HW,2013-01-02 01:48:00,
2013-01-01 17:53:00,34.8,31.0,30.38,SE,135,0.8,2.4,86,0.00,,,0.02,WUHU216HW,2013-01-02 01:53:00,
2013-01-01 17:58:00,34.8,31.3,30.37,South,180,0.0,1.1,87,0.00,,,0.02,WUHU216HW,2013-01-02 01:58:00,
2013-01-01 18:03:00,34.8,31.3,30.37,SE,135,0.8,0.8,87,0.00,,,0.02,WUHU216HW,2013-01-02 02:03:00,
2013-01-01 18:08:00,34.8,31.3,30.37,SE,135,0.0,1.1,87,0.00,,,0.02,WUHU216HW,2013-01-02 02:08:00,
2013-01-01 18:13:00,34.7,31.1,30.37,SSE,158,1.5,1.5,87,0.00,,,0.02,WUHU216HW,2013-01-02 02:13:00,
2013-01-01 18:18:00,34.7,31.1,30.37,SE,135,1.1,1.5,87,0.00,,,0.02,WUHU216HW,2013-01-02 02:18:00,
2013-01-01 18:23:00,34.7,31.1,30.37,South,180,0.0,1.1,87,0.00,,,0.02,WUHU216HW,2013-01-02 02:23:00,
2013-01-01 18:28:00,34.7,31.1,30.36,ESE,113,0.8,1.1,87,0.00,,,0.02,WUHU216HW,2013-01-02 02:28:00,
2013-01-01 18:33:00,34.8,31.3,30.36,SE,135,0.0,0.8,87,0.00,,,0.02,WUHU216HW,2013-01-02 02:33:00,
2013-01-01 18:38:00,34.8,31.3,30.36,ENE,68,1.3,1.5,87,0.00,,,0.02,WUHU216HW,2013-01-02 02:38:00,
2013-01-01 18:43:00,34.8,31.3,30.36,SW,225,7.3,7.3,87,0.00,,,0.02,WUHU216HW,2013-01-02 02:43:00,
2013-01-01 18:48:00,34.8,31.3,30.36,SSE,158,0.0,7.3,87,0.00,,,0.02,WUHU216HW,2013-01-02 02:48:00,
2013-01-01 18:53:00,34.8,31.3,30.36,ESE,113,0.0,7.3,87,0.00,,,0.02,WUHU216HW,2013-01-02 02:53:00,
2013-01-01 18:58:00,35.2,31.6,30.36,East,90,0.8,0.8,87,0.00,,,0.02,WUHU216HW,2013-01-02 02:58:00,
2013-01-01 19:03:00,35.4,31.8,30.35,NNE,23,0.0,0.8,87,0.00,,,0.02,WUHU216HW,2013-01-02 03:03:00,
2013-01-01 19:08:00,35.4,31.8,30.35,SSE,158,1.1,1.7,87,0.00,,,0.02,WUHU216HW,2013-01-02 03:08:00,
2013-01-01 19:13:00,35.4,31.8,30.35,NE,45,4.4,4.4,87,0.00,,,0.02,WUHU216HW,2013-01-02 03:13:00,
2013-01-01 19:19:00,35.4,31.8,30.34,South,180,4.6,4.6,87,0.00,,,0.02,WUHU216HW,2013-01-02 03:19:00,
2013-01-01 19:24:00,35.6,32.0,30.34,NW,315,0.0,4.6,87,0.00,,,0.02,WUHU216HW,2013-01-02 03:24:00,
2013-01-01 19:29:00,35.7,32.2,30.35,SW,225,0.0,4.6,87,0.00,,,0.02,WUHU216HW,2013-01-02 03:29:00,
2013-01-01 19:34:00,35.7,32.2,30.34,South,180,1.3,1.3,87,0.00,,,0.02,WUHU216HW,2013-01-02 03:34:00,
2013-01-01 19:39:00,35.7,32.2,30.34,SSE,158,4.0,4.0,87,0.00,,,0.02,WUHU216HW,2013-01-02 03:39:00,
2013-01-01 19:44:00,35.4,31.8,30.34,South,180,4.6,4.6,87,0.00,,,0.02,WUHU216HW,2013-01-02 03:44:00,
2013-01-01 19:49:00,35.7,32.2,30.34,SSE,158,1.9,4.6,87,0.00,,,0.02,WUHU216HW,2013-01-02 03:49:00,
2013-01-01 19:54:00,35.7,32.2,30.34,SSE,158,0.0,4.6,87,0.00,,,0.02,WUHU216HW,2013-01-02 03:54:00,
2013-01-01 19:59:00,36.1,32.7,30.33,NNW,338,0.0,3.1,87,0.00,,,0.02,WUHU216HW,2013-01-02 03:59:00,
2013-01-01 20:04:00,36.3,32.7,30.33,ESE,113,1.7,3.1,87,0.00,,,0.02,WUHU216HW,2013-01-02 04:04:00,
2013-01-01 20:09:00,36.5,32.9,30.33,SSE,158,2.9,2.9,87,0.00,,,0.02,WUHU216HW,2013-01-02 04:09:00,
2013-01-01 20:14:00,36.6,32.8,30.33,ENE,68,5.1,5.1,86,0.00,,,0.02,WUHU216HW,2013-01-02 04:14:00,
2013-01-01 20:19:00,37.0,33.1,30.33,South,180,3.3,5.1,86,0.00,,,0.02,WUHU216HW,2013-01-02 04:19:00,
2013-01-01 20:24:00,37.0,33.1,30.34,SSE,158,2.9,3.3,86,0.00,,,0.02,WUHU216HW,2013-01-02 04:24:00,
2013-01-01 20:29:00,37.2,33.3,30.34,ESE,113,1.5,6.0,86,0.00,,,0.02,WUHU216HW,2013-01-02 04:29:00,
2013-01-01 20:34:00,37.2,33.3,30.34,SSE,158,2.9,6.0,86,0.00,,,0.02,WUHU216HW,2013-01-02 04:34:00,
2013-01-01 20:39:00,37.0,32.9,30.34,South,180,1.7,4.4,85,0.00,,,0.02,WUHU216HW,2013-01-02 04:39:00,
2013-01-01 20:44:00,37.2,33.0,30.35,SSE,158,1.1,4.2,85,0.00,,,0.02,WUHU216HW,2013-01-02 04:44:00,
2013-01-01 20:49:00,37.0,32.9,30.35,SSE,158,1.7,4.2,85,0.00,,,0.02,WUHU216HW,2013-01-02 04:49:00,
2013-01-01 20:54:00,36.8,32.7,30.34,SSE,165,2.2,2.9,85,0.00,,,0.02,WUHU216HW,2013-01-02 04:54:00,
2013-01-01 20:59:00,36.6,32.5,30.35,South,180,1.5,2.9,85,0.00,,,0.02,WUHU216HW,2013-01-02 04:59:00,
2013-01-01 21:00:00,36.6,32.5,30.35,South,180,1.5,2.9,85,0.00,,,0.02,WUHU216HW,2013-01-02 05:00:00,
2013-01-01 21:01:00,36.6,32.5,30.35,SSE,158,1.1,2.9,85,0.00,,,0.02,WUHU216HW,2013-01-02 05:01:00,
2013-01-01 21:06:00,36.8,32.7,30.35,SE,135,0.8,1.5,85,0.00,,,0.02,WUHU216HW,2013-01-02 05:06:00,
2013-01-01 21:11:00,36.6,32.5,30.35,South,180,0.0,0.8,85,0.00,,,0.02,WUHU216HW,2013-01-02 05:11:00,
2013-01-01 21:16:00,36.8,32.7,30.35,SE,135,0.0,0.0,85,0.00,,,0.02,WUHU216HW,2013-01-02 05:16:00,
2013-01-01 21:21:00,36.6,32.5,30.35,SSE,158,1.5,1.5,85,0.00,,,0.02,WUHU216HW,2013-01-02 05:21:00,
2013-01-01 21:26:00,36.6,32.5,30.35,SE,135,0.0,1.5,85,0.00,,,0.02,WUHU216HW,2013-01-02 05:26:00,
2013-01-01 21:31:00,36.6,32.5,30.35,ESE,113,0.0,1.3,85,0.00,,,0.02,WUHU216HW,2013-01-02 05:31:00,
2013-01-01 21:36:00,36.6,32.2,30.34,SE,135,1.5,1.5,84,0.00,,,0.02,WUHU216HW,2013-01-02 05:36:00,
2013-01-01 21:41:00,36.5,32.0,30.34,ESE,113,0.0,1.5,84,0.00,,,0.02,WUHU216HW,2013-01-02 05:41:00,
2013-01-01 21:46:00,36.6,32.2,30.35,South,180,1.5,1.5,84,0.00,,,0.02,WUHU216HW,2013-01-02 05:46:00,
2013-01-01 21:51:00,36.5,32.0,30.35,ENE,68,0.0,1.5,84,0.00,,,0.02,WUHU216HW,2013-01-02 05:51:00,
2013-01-01 21:56:00,36.5,32.0,30.35,South,180,0.0,1.5,84,0.00,,,0.02,WUHU216HW,2013-01-02 05:56:00,
2013-01-01 22:01:00,36.5,32.0,30.35,SE,135,0.0,0.0,84,0.00,,,0.02,WUHU216HW,2013-01-02 06:01:00,
2013-01-01 22:06:00,36.3,31.8,30.35,SE,135,0.0,0.0,84,0.00,,,0.02,WUHU216HW,2013-01-02 06:06:00,
2013-01-01 22:11:00,35.9,31.5,30.34,ENE,68,0.0,0.0,84,0.00,,,0.02,WUHU216HW,2013-01-02 06:11:00,
2013-01-01 22:16:00,35.4,30.9,30.34,East,90,0.0,0.0,84,0.00,,,0.02,WUHU216HW,2013-01-02 06:16:00,
2013-01-01 22:21:00,35.2,30.8,30.34,NE,45,1.5,1.5,84,0.00,,,0.02,WUHU216HW,2013-01-02 06:21:00,
2013-01-01 22:26:00,34.8,30.4,30.34,SE,135,0.0,1.5,84,0.00,,,0.02,WUHU216HW,2013-01-02 06:26:00,
2013-01-01 22:31:00,34.5,30.3,30.34,South,180,2.0,2.0,85,0.00,,,0.02,WUHU216HW,2013-01-02 06:31:00,
2013-01-01 22:36:00,34.3,30.2,30.33,South,180,1.1,2.0,85,0.00,,,0.02,WUHU216HW,2013-01-02 06:36:00,
2013-01-01 22:41:00,34.3,30.2,30.34,SE,135,0.0,2.0,85,0.00,,,0.02,WUHU216HW,2013-01-02 06:41:00,
2013-01-01 22:46:00,34.3,30.4,30.34,East,90,0.0,2.0,86,0.00,,,0.02,WUHU216HW,2013-01-02 06:46:00,
2013-01-01 22:51:00,34.3,30.4,30.34,East,90,0.0,0.0,86,0.00,,,0.02,WUHU216HW,2013-01-02 06:51:00,
2013-01-01 22:56:00,34.3,30.4,30.34,East,90,0.0,0.0,86,0.00,,,0.02,WUHU216HW,2013-01-02 06:56:00,
2013-01-01 23:01:00,34.3,30.4,30.33,East,90,0.0,1.1,86,0.00,,,0.02,WUHU216HW,2013-01-02 07:01:00,
2013-01-01 23:06:00,34.3,30.4,30.34,East,90,0.0,1.1,86,0.00,,,0.02,WUHU216HW,2013-01-02 07:06:00,
2013-01-01 23:11:00,34.3,30.7,30.34,SE,135,2.9,2.9,87,0.00,,,0.02,WUHU216HW,2013-01-02 07:11:00,
2013-01-01 23:16:00,34.3,30.7,30.34,NE,45,0.0,2.9,87,0.00,,,0.02,WUHU216HW,2013-01-02 07:16:00,
2013-01-01 23:21:00,34.1,30.5,30.34,ENE,68,0.0,1.5,87,0.00,,,0.02,WUHU216HW,2013-01-02 07:21:00,
2013-01-01 23:26:00,34.1,30.5,30.34,South,180,0.0,1.5,87,0.00,,,0.02,WUHU216HW,2013-01-02 07:26:00,
2013-01-01 23:31:00,33.9,30.4,30.34,East,90,0.0,2.4,87,0.00,,,0.02,WUHU216HW,2013-01-02 07:31:00,
2013-01-01 23:36:00,33.9,30.4,30.34,South,180,0.0,2.4,87,0.00,,,0.02,WUHU216HW,2013-01-02 07:36:00,
2013-01-01 23:41:00,33.9,30.4,30.34,SSE,158,0.6,1.3,87,0.00,,,0.02,WUHU216HW,2013-01-02 07:41:00,
2013-01-01 23:46:00,33.9,30.4,30.34,SSE,158,0.0,0.6,87,0.00,,,0.02,WUHU216HW,2013-01-02 07:46:00,
2013-01-01 23:51:00,34.1,30.5,30.33,SE,135,0.0,0.0,87,0.00,,,0.02,WUHU216HW,2013-01-02 07:51:00,
2013-01-01 23:56:00,34.1,30.5,30.33,NNE,23,2.0,2.0,87,0.00,,,0.02,WUHU216HW,2013-01-02 07:56:00,